Weather History for KMCI - August, 2013

Change the Weather History Date:

Saturday, August 10, 2013

  Actual Average Record
Temperature  
Mean Temperature 74 °F 78 °F  
Max Temperature 82 °F 88 °F 111 °F (1934)
Min Temperature 65 °F 68 °F 58 °F (1982)
Degree Days  
Heating Degree Days 0 0  
Month to date heating degree days 0 0  
Since 1 June heating degree days 17 9  
Since 1 July heating degree days 0 0  
Cooling Degree Days 9 13  
Month to date cooling degree days 97 131  
Year to date cooling degree days 845 927  
Since 1 June cooling degree days 740 811  
Growing Degree Days 23 (Base 50)    
Moisture  
Dew Point 60 °F    
Average Humidity 68    
Maximum Humidity 93    
Minimum Humidity 42    
Precipitation  
Precipitation 0.00 in 0.12 in 2.11 in (1921)
Month to date precipitation 1.85 1.20  
Year to date precipitation 22.40 24.71  
Snow  
Snow 0.00 in 0.00 in 0.00 in ()
Month to date snowfall 0.0 0.0  
Since 1 June snowfall 0.0 0.0  
Since 1 July snowfall 0.0 0.0  
Snow Depth 0.00 in    
Sea Level Pressure  
Sea Level Pressure 30.13 in    
Wind  
Wind Speed 7 mph (East)    
Max Wind Speed 13 mph    
Max Gust Speed 17 mph    
Visibility 9 miles    
Events      
T = Trace of Precipitation, MM = Missing Value Source: NWS Daily Summary

Daily Weather History Graph

Daily Weather History Graph

Search for Another Location

Airport or City:

Trip Planner

Search our weather history database for the weather conditions in past years. The results will help you decide how hot, cold, wet, or windy it might be!

Date:

Astronomy

Aug. 10, 2013 Rise Set
Actual Time 6:27 AM CDT 8:20 PM CDT
Civil Twilight 5:58 AM CDT 8:49 PM CDT
Nautical Twilight 5:22 AM CDT 9:24 PM CDT
Astronomical Twilight 4:44 AM CDT 10:02 PM CDT
Moon 10:12 AM CDT (8/10) 10:04 PM CDT (8/10)
Length of Visible Light 14h 51m
Length of Day
13h 52m
Waxing Crescent, 14% of the Moon is Illuminated
Aug 10
Waxing Crescent
Aug 14
First Quarter
Aug 20
Full
Aug 28
Last Quarter
Sep 5
New

Hourly Weather History & Observations

Time (CDT) Temp. Heat Index Dew Point Humidity Pressure Visibility Wind Dir Wind Speed Gust Speed Precip Events Conditions
12:53 AM 66.9 °F - 64.9 °F 93% 30.12 in 5.0 mi West 3.5 mph - N/A   Clear
1:53 AM 66.0 °F - 64.0 °F 93% 30.12 in 5.0 mi NW 4.6 mph - N/A   Clear
2:53 AM 66.9 °F - 64.0 °F 90% 30.12 in 9.0 mi NW 6.9 mph - N/A   Clear
3:53 AM 64.9 °F - 63.0 °F 93% 30.12 in 7.0 mi NNE 5.8 mph - N/A   Clear
4:53 AM 66.0 °F - 63.0 °F 90% 30.13 in 10.0 mi NE 8.1 mph - N/A   Clear
5:53 AM 64.9 °F - 61.0 °F 87% 30.13 in 10.0 mi NE 5.8 mph - N/A   Clear
6:53 AM 64.9 °F - 61.0 °F 87% 30.14 in 10.0 mi NE 6.9 mph - N/A   Clear
7:53 AM 68.0 °F - 61.0 °F 78% 30.15 in 10.0 mi ENE 6.9 mph - N/A   Clear
8:53 AM 71.1 °F - 60.1 °F 68% 30.17 in 10.0 mi East 8.1 mph - N/A   Clear
9:53 AM 73.9 °F - 59.0 °F 59% 30.18 in 10.0 mi East 11.5 mph - N/A   Clear
10:53 AM 75.9 °F - 60.1 °F 58% 30.18 in 10.0 mi ESE 10.4 mph - N/A   Clear
11:53 AM 78.1 °F - 60.1 °F 54% 30.19 in 10.0 mi East 8.1 mph - N/A   Partly Cloudy
12:53 PM 79.0 °F - 59.0 °F 50% 30.18 in 10.0 mi Variable 5.8 mph - N/A   Scattered Clouds
1:53 PM 80.1 °F 80.4 °F 57.0 °F 45% 30.16 in 10.0 mi East 9.2 mph - N/A   Partly Cloudy
2:53 PM 81.0 °F 80.8 °F 55.9 °F 42% 30.15 in 10.0 mi ESE 11.5 mph - N/A   Partly Cloudy
3:53 PM 82.0 °F 81.7 °F 57.0 °F 42% 30.14 in 10.0 mi East 6.9 mph - N/A   Partly Cloudy
4:53 PM 81.0 °F 81.1 °F 57.9 °F 45% 30.11 in 10.0 mi SSE 5.8 mph - N/A   Clear
5:53 PM 81.0 °F 81.3 °F 59.0 °F 47% 30.10 in 10.0 mi East 5.8 mph - N/A   Clear
6:53 PM 80.1 °F 80.7 °F 59.0 °F 48% 30.08 in 10.0 mi ENE 6.9 mph - N/A   Clear
7:53 PM 79.0 °F - 59.0 °F 50% 30.08 in 10.0 mi East 5.8 mph - N/A   Partly Cloudy
8:53 PM 73.9 °F - 60.1 °F 62% 30.09 in 10.0 mi SE 5.8 mph - N/A   Partly Cloudy
9:53 PM 72.0 °F - 60.1 °F 66% 30.11 in 10.0 mi SE 5.8 mph - N/A   Clear
10:53 PM 70.0 °F - 60.1 °F 71% 30.12 in 10.0 mi SSE 5.8 mph - N/A   Clear
11:53 PM 66.9 °F - 60.1 °F 79% 30.12 in 10.0 mi SSE 6.9 mph - N/A   Clear